P/2013 YG46 ( Spacewatch ) 2017

Japanese version
Home page
Updated on July 2, 2016

---------------------------------------------------------------------

* Profile

* Pictures

* Orbital Elements

Epoch 2017 Feb. 16.0 TT = JDT 2457800.5
T 2017 Jan. 29.50418 TT                                 MPCW
q   1.7876556            (2000.0)            P               Q
n   0.16625702     Peri.  242.38151     +0.35682137     +0.92847103
a   3.2755386      Node    48.90879     -0.80165459     +0.36097219
e   0.4542407      Incl.    7.85907     -0.47961279     +0.08741070
P   5.93
From 55 observations 2013 Dec. 26-2014 Feb. 20, mean residual 0".5.

* Magnitudes Graph

        H = 17.0  G = 0.15

---------------------------------------------------------------------

The orbital elements are published on M.P.E.C. 2016-M22.
The magnitudes graphs are made with Comet for Windows.

---------------------------------------------------------------------

Copyright(C) Seiichi Yoshida (comet@aerith.net). All rights reserved.